Tracking 35275 objects as of 8-Sep-2026
HD Live streaming from Space Station
objects crossing your sky now

UM5-EOSAT

Track UM5-EOSAT now!
10-day predictions
UM5-EOSAT is classified as:


NORAD ID: 60555
Int'l Code: 2024-149CR
Launch date: August 16, 2024
Source: Morocco (MA)
Launch site: AIR FORCE WESTERN TEST RANGE (AFWTR)

Uplink (MHz):
Downlink (MHz): 401.275
Beacon (MHz):
Mode: 2k4 GFSK
Call sign:
Status: Inactive

Your satellite tracking list
Your tracking list is empty




NASA's NSSDC Master Catalog

Two Line Element Set (TLE):
1 60555U 24149CR  26250.79204608  .00001336  00000-0  10661-3 0  9992
2 60555  97.6681 328.6163 0008363 207.1828 152.8960 15.01957505112617
Source of the keplerian elements: AFSPC